When you browse on this site, cookies collect data to enhance your experience and personalize the content and advertising you see.
Visit our Privacy Policy to learn more. By continuing to use the site, you agree to this use of cookies and data.
  • In Österreich
  • Länderverzeichnis
  • Für 7 Tage
  • Wassertemperatur
  • Wetterkarte
  • News
  • Widgets
  • user-avatar
    Anmelden

    Stündliche Wetter Maturín

    Heute, 21 Januar, Dienstag

    Zeit Temperatur Niederschläge Wind Luftdruck Luftfeuchtigkeit
    00:00 +24°C° 0.1 mm 2 m/S 756 mmHg 96%
    01:00 +24°C° 0.1 mm 1 m/S 756 mmHg 97%
    02:00 +24°C° 0 mm 1 m/S 756 mmHg 98%
    03:00 +24°C° 0 mm 1 m/S 755 mmHg 98%
    04:00 +23°C° 0 mm 1 m/S 755 mmHg 98%
    05:00 +23°C° 0 mm 1 m/S 755 mmHg 98%
    06:00 +24°C° 0 mm 1 m/S 756 mmHg 96%
    07:00 +24°C° 0 mm 1 m/S 756 mmHg 94%
    08:00 +25°C° 0 mm 2 m/S 756 mmHg 92%
    09:00 +27°C° 0 mm 2 m/S 756 mmHg 83%
    10:00 +29°C° 0 mm 2 m/S 757 mmHg 74%
    11:00 +30°C° 0 mm 3 m/S 757 mmHg 65%
    12:00 +31°C° 0 mm 3 m/S 756 mmHg 61%
    13:00 +33°C° 0 mm 3 m/S 755 mmHg 57%
    14:00 +34°C° 0 mm 3 m/S 754 mmHg 53%
    15:00 +33°C° 0 mm 3 m/S 754 mmHg 57%
    16:00 +31°C° 0 mm 3 m/S 753 mmHg 60%
    17:00 +31°C° 0 mm 3 m/S 753 mmHg 64%
    18:00 +29°C° 0 mm 3 m/S 753 mmHg 69%
    19:00 +27°C° 0 mm 3 m/S 754 mmHg 75%
    20:00 +25°C° 0 mm 3 m/S 754 mmHg 80%
    21:00 +25°C° 0 mm 2 m/S 754 mmHg 85%
    22:00 +24°C° 0 mm 2 m/S 755 mmHg 90%
    23:00 +23°C° 0 mm 1 m/S 755 mmHg 95%

    Morgen, 22 Januar, Mittwoch

    Zeit Temperatur Niederschläge Wind Luftdruck Luftfeuchtigkeit
    00:00 +23°C° 0 mm 1 m/S 755 mmHg 96%
    01:00 +23°C° 0 mm 1 m/S 755 mmHg 97%
    02:00 +23°C° 0 mm 1 m/S 754 mmHg 98%
    03:00 +23°C° 0 mm 1 m/S 754 mmHg 98%
    04:00 +22°C° 0 mm 1 m/S 754 mmHg 98%
    05:00 +22°C° 0 mm 1 m/S 754 mmHg 98%
    06:00 +23°C° 0 mm 1 m/S 755 mmHg 95%
    07:00 +24°C° 0 mm 1 m/S 755 mmHg 93%
    08:00 +25°C° 0 mm 1 m/S 755 mmHg 90%
    09:00 +27°C° 0 mm 1 m/S 756 mmHg 80%
    10:00 +29°C° 0 mm 2 m/S 756 mmHg 69%
    11:00 +31°C° 0 mm 2 m/S 756 mmHg 59%
    12:00 +31°C° 0 mm 2 m/S 755 mmHg 57%
    13:00 +32°C° 0 mm 2 m/S 754 mmHg 56%
    14:00 +32°C° 0 mm 2 m/S 753 mmHg 54%
    15:00 +32°C° 0 mm 2 m/S 753 mmHg 57%
    16:00 +31°C° 0 mm 2 m/S 753 mmHg 60%
    17:00 +31°C° 0 mm 2 m/S 753 mmHg 64%
    18:00 +29°C° 0 mm 2 m/S 753 mmHg 70%
    19:00 +27°C° 0 mm 2 m/S 754 mmHg 77%
    20:00 +25°C° 0 mm 2 m/S 754 mmHg 84%
    21:00 +25°C° 0 mm 2 m/S 754 mmHg 87%
    22:00 +24°C° 0 mm 1 m/S 754 mmHg 90%
    23:00 +23°C° 0 mm 1 m/S 755 mmHg 93%

    übermorgen, 23 Januar, Donnerstag

    Zeit Temperatur Niederschläge Wind Luftdruck Luftfeuchtigkeit
    00:00 +23°C° 0 mm 1 m/S 754 mmHg 94%
    01:00 +23°C° 0 mm 1 m/S 754 mmHg 96%
    02:00 +23°C° 0 mm 1 m/S 754 mmHg 97%
    03:00 +23°C° 0 mm 1 m/S 754 mmHg 97%
    04:00 +22°C° 0 mm 1 m/S 753 mmHg 98%
    05:00 +22°C° 0 mm 1 m/S 753 mmHg 98%
    06:00 +23°C° 0 mm 1 m/S 754 mmHg 95%
    07:00 +24°C° 0 mm 1 m/S 754 mmHg 92%
    08:00 +25°C° 0 mm 1 m/S 755 mmHg 89%
    09:00 +27°C° 0 mm 1 m/S 755 mmHg 80%
    10:00 +28°C° 0 mm 2 m/S 755 mmHg 70%
    11:00 +30°C° 0 mm 2 m/S 756 mmHg 61%
    12:00 +31°C° 0 mm 2 m/S 755 mmHg 56%
    13:00 +32°C° 0 mm 2 m/S 754 mmHg 51%
    14:00 +34°C° 0 mm 2 m/S 753 mmHg 47%
    15:00 +34°C° 0 mm 2 m/S 753 mmHg 49%
    16:00 +32°C° 0 mm 2 m/S 753 mmHg 51%
    17:00 +32°C° 0 mm 2 m/S 752 mmHg 54%
    18:00 +29°C° 0 mm 2 m/S 753 mmHg 62%
    19:00 +27°C° 0 mm 2 m/S 753 mmHg 70%
    20:00 +25°C° 0 mm 2 m/S 754 mmHg 79%
    21:00 +24°C° 0 mm 2 m/S 754 mmHg 82%
    22:00 +23°C° 0 mm 2 m/S 754 mmHg 86%
    23:00 +22°C° 0 mm 1 m/S 755 mmHg 90%

    24 Januar, Freitag

    Zeit Temperatur Niederschläge Wind Luftdruck Luftfeuchtigkeit
    00:00 +22°C° 0 mm 1 m/S 754 mmHg 91%
    01:00 +22°C° 0 mm 1 m/S 754 mmHg 92%
    02:00 +22°C° 0 mm 1 m/S 754 mmHg 94%
    03:00 +22°C° 0 mm 1 m/S 754 mmHg 94%
    04:00 +21°C° 0 mm 1 m/S 754 mmHg 95%
    05:00 +19°C° 0 mm 0 m/S 754 mmHg 96%
    06:00 +20°C° 0 mm 0 m/S 755 mmHg 93%
    07:00 +21°C° 0 mm 0 m/S 756 mmHg 90%
    08:00 +22°C° 0 mm 0 m/S 756 mmHg 87%
    09:00 +27°C° 0 mm 1 m/S 756 mmHg 77%
    10:00 +29°C° 0 mm 1 m/S 756 mmHg 67%
    11:00 +31°C° 0 mm 2 m/S 756 mmHg 57%
    12:00 +32°C° 0 mm 2 m/S 756 mmHg 54%
    13:00 +34°C° 0 mm 2 m/S 755 mmHg 50%
    14:00 +35°C° 0 mm 2 m/S 754 mmHg 46%
    15:00 +34°C° 0 mm 3 m/S 754 mmHg 51%
    16:00 +33°C° 0 mm 3 m/S 754 mmHg 55%
    17:00 +33°C° 0 mm 3 m/S 753 mmHg 59%
    18:00 +30°C° 0 mm 3 m/S 754 mmHg 67%
    19:00 +28°C° 0 mm 3 m/S 754 mmHg 75%
    20:00 +26°C° 0 mm 3 m/S 755 mmHg 83%
    21:00 +25°C° 0 mm 2 m/S 755 mmHg 86%
    22:00 +25°C° 0 mm 2 m/S 755 mmHg 89%
    23:00 +24°C° 0 mm 2 m/S 756 mmHg 93%

    25 Januar, Samstag

    Zeit Temperatur Niederschläge Wind Luftdruck Luftfeuchtigkeit
    00:00 +24°C° 0 mm 2 m/S 756 mmHg 94%
    01:00 +24°C° 0 mm 1 m/S 755 mmHg 95%
    02:00 +24°C° 0 mm 1 m/S 755 mmHg 96%
    03:00 +23°C° 0 mm 1 m/S 755 mmHg 97%
    04:00 +23°C° 0 mm 1 m/S 755 mmHg 97%
    05:00 +23°C° 0 mm 1 m/S 755 mmHg 98%
    06:00 +24°C° 0 mm 1 m/S 755 mmHg 95%
    07:00 +25°C° 0 mm 1 m/S 756 mmHg 92%
    08:00 +26°C° 0 mm 1 m/S 757 mmHg 89%
    09:00 +27°C° 0.3 mm 2 m/S 757 mmHg 83%
    10:00 +28°C° 0.3 mm 2 m/S 757 mmHg 77%
    11:00 +30°C° 0.3 mm 3 m/S 757 mmHg 71%
    12:00 +30°C° 0.2 mm 3 m/S 756 mmHg 70%
    13:00 +30°C° 0.2 mm 3 m/S 756 mmHg 69%
    14:00 +30°C° 0.2 mm 3 m/S 755 mmHg 68%
    15:00 +30°C° 0 mm 3 m/S 755 mmHg 68%
    16:00 +30°C° 0 mm 3 m/S 755 mmHg 67%
    17:00 +30°C° 0 mm 3 m/S 754 mmHg 66%
    18:00 +29°C° 0 mm 3 m/S 755 mmHg 72%
    19:00 +27°C° 0 mm 2 m/S 755 mmHg 77%
    20:00 +25°C° 0 mm 2 m/S 756 mmHg 83%
    21:00 +25°C° 0 mm 2 m/S 756 mmHg 86%
    22:00 +24°C° 0 mm 2 m/S 756 mmHg 90%
    23:00 +24°C° 0 mm 1 m/S 756 mmHg 93%

    26 Januar, Sonntag

    Zeit Temperatur Niederschläge Wind Luftdruck Luftfeuchtigkeit
    00:00 +23°C° 0 mm 1 m/S 756 mmHg 94%
    01:00 +23°C° 0 mm 1 m/S 755 mmHg 95%
    02:00 +23°C° 0 mm 1 m/S 755 mmHg 96%
    03:00 +23°C° 0 mm 1 m/S 755 mmHg 97%
    04:00 +23°C° 0 mm 1 m/S 755 mmHg 97%
    05:00 +22°C° 0 mm 1 m/S 755 mmHg 97%
    06:00 +23°C° 0 mm 1 m/S 756 mmHg 94%
    07:00 +24°C° 0 mm 1 m/S 756 mmHg 91%
    08:00 +25°C° 0 mm 2 m/S 757 mmHg 87%
    09:00 +27°C° 0 mm 2 m/S 757 mmHg 77%
    10:00 +29°C° 0 mm 2 m/S 757 mmHg 67%
    11:00 +31°C° 0 mm 2 m/S 757 mmHg 57%
    12:00 +32°C° 0 mm 2 m/S 756 mmHg 52%
    13:00 +34°C° 0 mm 2 m/S 755 mmHg 48%
    14:00 +35°C° 0 mm 2 m/S 755 mmHg 43%
    15:00 +34°C° 0 mm 2 m/S 754 mmHg 46%
    16:00 +32°C° 0 mm 2 m/S 754 mmHg 50%
    17:00 +32°C° 0 mm 2 m/S 753 mmHg 53%
    18:00 +29°C° 0 mm 2 m/S 754 mmHg 63%
    19:00 +27°C° 0 mm 3 m/S 754 mmHg 73%
    20:00 +25°C° 0 mm 3 m/S 755 mmHg 83%
    21:00 +25°C° 0 mm 2 m/S 756 mmHg 86%
    22:00 +24°C° 0 mm 2 m/S 756 mmHg 89%
    23:00 +24°C° 0 mm 2 m/S 756 mmHg 92%
    Mehr zeigen